Waarnemingen

Advertentie
Mijn weer
Cazaux, Frankrijk (7502): temperatuur & dauwpunt: 14.07.2018 04:00:00 - 20.07.2018 04:00:00 (CEST)Cazaux, Frankrijk (7502): temperatuur 5cm: 14.07.2018 04:00:00 - 20.07.2018 04:00:00 (CEST)Cazaux, Frankrijk (7502): temperatuur -20cm & temperatuur -100cm: 14.07.2018 04:00:00 - 20.07.2018 04:00:00 (CEST)Cazaux, Frankrijk (7502): windsnelheid & windstoten: 14.07.2018 04:00:00 - 20.07.2018 04:00:00 (CEST)Cazaux, Frankrijk (7502): windrichting: 14.07.2018 04:00:00 - 20.07.2018 04:00:00 (CEST)Cazaux, Frankrijk (7502): luchtdruk: 14.07.2018 04:00:00 - 20.07.2018 04:00:00 (CEST)Cazaux, Frankrijk (7502): zicht: 14.07.2018 04:00:00 - 20.07.2018 04:00:00 (CEST)Cazaux, Frankrijk (7502): neerslag: 14.07.2018 04:00:00 - 20.07.2018 04:00:00 (CEST)
Datum & Tijd tt [°C] td [°C] tt 5cm [°C] tt -20cm [°C] tt -100cm [°C] ff [km/u] ff [kn] fx [km/u] fx [kn] dd ppp [hPa] vv [km] rr [mm]
20.07.2018 04:00:00 18,5 15,7 15,9 24,5 23,0 0 0 9 5 N 1016,8 39 0,0
20.07.2018 03:00:00 20,2 16,4 19,4 24,6 23,1 5 3 23 13 NNW 1017,1 39 0,0
20.07.2018 02:00:00 20,6 15,8 19,8 24,6 23,1 10 5 25 13 N 1017,2 44 0,0
20.07.2018 01:00:00 21,0 15,1 20,0 24,5 23,0 14 8 26 14 NNW 1017,8 48 0,0
20.07.2018 00:00:00 21,2 14,8 20,1 24,5 23,1 13 7 22 12 NNW 1017,4 46 0,0
19.07.2018 23:00:00 21,7 14,6 19,9 24,5 23,1 12 7 22 12 N 1016,6 46 0,0
19.07.2018 22:00:00 22,6 15,4 21,9 24,4 23,1 11 6 26 14 N 1016,0 42 0,0
19.07.2018 21:00:00 24,2 14,9 24,9 24,3 23,0 19 10 36 19 NNW 1015,6 46 0,0
19.07.2018 20:00:00 25,3 15,0 26,8 24,2 23,0 15 8 31 17 N 1015,5 45 0,0
19.07.2018 19:00:00 25,8 16,1 29,4 24,0 23,1 18 10 33 18 NNW 1015,2 38 0,0
19.07.2018 18:00:00 26,1 15,8 28,6 23,9 23,0 22 12 37 20 NNW 1015,3 25 0,0
19.07.2018 17:00:00 25,5 18,2 30,6 23,8 23,1 19 11 31 17 WNW 1015,3 37 0,0
19.07.2018 16:00:00 27,7 19,5 32,9 23,7 23,0 21 11 30 16 W 1015,0 42 0,0
19.07.2018 15:00:00 28,1 19,6 35,7 23,7 23,1 17 9 26 14 W 1015,0 20 0,0
19.07.2018 14:00:00 28,9 17,4 31,6 23,7 23,1 12 7 21 11 ZZW 1015,2 21 0,0
19.07.2018 13:00:00 29,0 17,2 35,8 23,7 23,0 8 4 21 11 ZW 1015,3 33 0,0
19.07.2018 12:00:00 28,1 17,6 34,0 23,8 23,1 9 5 21 11 Z 1015,7 21 0,0
19.07.2018 11:00:00 26,1 18,5 30,7 23,8 23,0 4 2 12 7 ZZO 1015,8 39 0,0
19.07.2018 10:00:00 23,6 19,1 26,3 23,9 23,0 8 4 13 7 Z 1016,2 16 0,0
19.07.2018 09:00:00 21,3 17,9 23,3 24,0 23,0 5 3 9 5 ZZO 1016,0 27 0,0
19.07.2018 08:00:00 18,9 17,4 16,0 24,0 23,0 3 2 5 3 N 1016,0 18 0,0
19.07.2018 07:00:00 17,3 16,5 14,3 24,1 23,0 3 2 7 4 NO 1015,8 18 0,0
19.07.2018 06:00:00 17,7 16,7 15,2 24,2 23,0 7 4 14 7 N 1015,3 17 0,0
19.07.2018 05:00:00 18,1 17,1 16,2 24,2 23,0 12 6 15 8 N 1015,4 20 0,0
19.07.2018 04:00:00 18,6 17,3 16,3 24,3 23,0 8 4 10 5 N 1015,6 24 0,0
19.07.2018 03:00:00 19,0 17,8 17,0 24,3 23,0 7 4 13 7 O 1016,2 19 0,0
19.07.2018 02:00:00 19,8 17,9 18,2 24,3 23,0 7 4 15 8 NNO 1016,3 23 0,0
19.07.2018 01:00:00 20,7 17,9 18,8 24,3 23,0 10 6 16 8 N 1016,2 29 0,0
19.07.2018 00:00:00 21,3 18,3 19,7 24,3 23,0 11 6 16 9 N 1016,4 30 0,0
18.07.2018 23:00:00 22,3 19,3 20,8 24,3 23,0 11 6 19 11 N 1016,5 26 0,0
18.07.2018 22:00:00 24,0 18,4 22,5 24,2 23,0 8 5 19 10 NNO 1016,0 37 0,0
18.07.2018 21:00:00 25,4 18,3 25,1 24,1 23,0 13 7 18 10 NNO 1015,3 39 0,0
18.07.2018 20:00:00 26,7 17,5 27,6 24,1 23,0 13 7 27 14 NNO 1014,3 42 0,0
18.07.2018 19:00:00 27,3 16,9 29,3 24,0 23,0 20 11 39 21 NO 1014,0 49 0,0
18.07.2018 18:00:00 27,4 17,8 30,1 23,9 23,0 26 14 42 23 NO 1013,7 47 0,0
18.07.2018 17:00:00 26,7 17,5 31,0 23,9 23,0 27 15 40 22 N 1014,1 20 0,0
18.07.2018 16:00:00 29,1 14,5 32,2 23,8 23,0 14 8 23 12 NNO 1014,7 48 0,0
18.07.2018 15:00:00 29,4 14,8 31,8 23,8 23,0 11 6 27 15 NO 1014,2 50 0,0
18.07.2018 14:00:00 29,2 14,2 31,9 23,8 23,0 19 10 31 17 ONO 1014,0 53 0,0
18.07.2018 13:00:00 29,0 14,0 35,5 23,8 23,0 18 10 31 17 NO 1014,3 53 0,0
18.07.2018 12:00:00 28,2 15,5 32,9 23,8 23,0 16 9 29 15 ONO 1014,8 60 0,0
18.07.2018 11:00:00 26,0 16,0 30,4 23,9 23,0 14 8 22 12 NO 1015,4 54 0,0
18.07.2018 10:00:00 23,3 15,9 22,5 24,0 23,0 12 6 23 12 NO 1015,6 42 0,0
18.07.2018 09:00:00 20,4 15,2 18,3 24,1 23,0 13 7 21 11 NO 1015,7 33 0,0
18.07.2018 08:00:00 17,6 14,3 17,0 24,2 23,0 11 6 17 9 NNO 1016,0 33 0,0
18.07.2018 07:00:00 17,1 14,2 16,2 24,2 23,0 10 6 18 10 NNO 1016,4 34 0,0
18.07.2018 06:00:00 17,6 14,1 16,5 24,3 23,0 13 7 22 12 NNO 1016,5 37 0,0
18.07.2018 05:00:00 17,8 14,7 16,6 24,4 23,0 14 8 21 12 N 1016,5 46 0,0
18.07.2018 04:00:00 17,9 15,0 16,4 24,4 23,0 11 6 18 10 N 1017,2 41 0,0
18.07.2018 03:00:00 18,4 15,1 17,2 24,5 23,0 12 7 21 11 NNO 1017,5 41 0,0
18.07.2018 02:00:00 19,1 15,6 17,8 24,5 23,0 11 6 21 11 NNO 1017,9 46 0,0
18.07.2018 01:00:00 19,6 16,4 18,4 24,5 23,0 14 7 21 12 N 1018,2 47 0,0
18.07.2018 00:00:00 20,3 17,3 18,7 24,5 23,0 12 7 18 10 N 1018,2 45 0,0
17.07.2018 23:00:00 20,6 17,2 18,7 24,4 23,0 12 7 18 10 N 1018,1 50 0,0
17.07.2018 22:00:00 21,1 16,3 19,8 24,4 23,0 11 6 16 9 NNW 1017,8 55 0,0
17.07.2018 21:00:00 23,0 16,1 24,1 24,2 23,0 12 6 18 10 NW 1017,8 51 0,0
17.07.2018 20:00:00 25,5 14,9 28,4 24,1 23,0 13 7 24 13 NW 1017,9 51 0,0
17.07.2018 19:00:00 25,6 15,0 32,1 24,0 23,0 15 8 24 13 NNW 1018,1 38 0,0
17.07.2018 18:00:00 25,8 15,2 33,4 23,8 23,0 10 6 25 13 NNW 1018,7 60 0,0
17.07.2018 17:00:00 25,1 16,5 33,4 23,7 23,0 15 8 31 17 NW 1018,9 60 0,0
17.07.2018 16:00:00 26,0 16,3 33,1 23,7 23,0 20 11 29 16 W 1019,3 55 0,0
17.07.2018 15:00:00 26,6 17,1 35,0 23,6 23,0 17 9 28 15 ZW 1019,4 60 0,0
17.07.2018 14:00:00 26,0 15,4 34,7 23,5 23,0 9 5 20 11 ZW 1019,8 20 0,0
17.07.2018 13:00:00 25,4 16,0 31,7 23,6 23,0 13 7 21 11 ZZW 1020,1 60 0,0
17.07.2018 12:00:00 25,5 16,6 25,0 23,6 23,0 12 6 18 10 ZZW 1020,3 53 0,0
17.07.2018 11:00:00 23,1 16,9 25,1 23,7 23,0 6 4 16 9 ZZO 1020,5 54 0,0
17.07.2018 10:00:00 22,4 17,3 20,3 23,8 23,0 8 5 15 8 OZO 1020,7 32 0,0
17.07.2018 09:00:00 19,0 18,0 19,1 23,8 23,0 6 3 10 5 OZO 1020,7 17 0,0
17.07.2018 08:00:00 18,7 18,4 15,0 24,0 23,0 3 2 11 6 ONO 1020,5 19 0,0
17.07.2018 07:00:00 16,6 16,3 12,8 24,0 23,0 6 3 11 6 NNO 1020,5 1,0 0,0
17.07.2018 06:00:00 16,8 16,3 14,6 24,1 23,0 5 3 8 4 OZO 1020,3 15 0,0
17.07.2018 05:00:00 17,5 17,2 15,1 24,2 23,0 0 0 4 2 N 1020,4 18 0,0
17.07.2018 04:00:00 17,2 16,6 13,7 24,2 23,0 0 0 6 3 N 1020,4 20 0,0
17.07.2018 03:00:00 18,5 17,8 14,1 24,3 23,0 4 2 6 3 WZW 1020,4 19 0,0
17.07.2018 02:00:00 19,7 18,0 17,7 24,4 23,0 5 3 12 6 W 1020,8 30 0,2
17.07.2018 01:00:00 19,2 17,3 14,8 24,4 22,9 6 3 9 5 WZW 1021,0 18 0,0
17.07.2018 00:00:00 18,9 16,1 15,0 24,4 23,0 5 3 9 5 WZW 1021,0 33 0,0
16.07.2018 23:00:00 19,4 15,7 16,3 24,4 22,9 5 3 15 8 W 1020,8 53 0,0
16.07.2018 22:00:00 20,8 15,6 19,6 24,4 22,9 10 5 29 16 W 1020,3 56 0,0
16.07.2018 21:00:00 22,0 16,3 22,1 24,3 22,9 16 9 31 17 WNW 1019,9 54 0,0
16.07.2018 20:00:00 22,5 16,8 23,2 24,3 23,0 16 8 37 20 WNW 1019,3 43 0,0
16.07.2018 19:00:00 23,2 15,8 27,0 24,2 22,9 25 13 43 23 WNW 1018,8 33 0,0
16.07.2018 18:00:00 24,1 15,8 28,3 24,2 23,0 27 15 47 25 WNW 1018,8 37 0,0
16.07.2018 17:00:00 24,8 17,0 26,9 24,1 22,9 29 15 49 26 WNW 1018,4 20 0,0
16.07.2018 16:00:00 24,9 17,6 27,0 24,1 22,9 30 16 46 25 NW 1018,1 47 0,0
16.07.2018 15:00:00 25,3 16,4 26,8 24,1 22,9 28 15 51 27 WNW 1017,7 57 0,0
16.07.2018 14:00:00 24,9 18,8 27,7 24,2 22,9 26 14 41 22 WNW 1017,4 60 0,0
16.07.2018 13:00:00 24,7 17,9 28,1 24,2 22,9 25 14 37 20 WNW 1017,0 54 0,0
16.07.2018 12:00:00 25,1 16,5 26,5 24,3 22,9 23 12 37 20 WNW 1016,7 52 0,0
16.07.2018 11:00:00 23,6 19,3 23,6 24,3 22,9 16 8 26 14 NW 1016,3 36 0,0
16.07.2018 10:00:00 22,5 19,5 21,7 24,4 22,9 13 7 19 11 NW 1015,9 29 0,0
16.07.2018 09:00:00 21,0 17,8 19,4 24,6 22,9 7 4 12 7 W 1015,0 35 0,0
16.07.2018 08:00:00 19,9 16,5 19,1 24,6 22,9 2 1 8 4 Z 1014,9 44 0,0
16.07.2018 07:00:00 19,9 15,7 17,7 24,7 22,9 8 4 14 8 W 1014,4 59 0,0
16.07.2018 06:00:00 19,4 15,5 18,1 24,8 22,9 11 6 19 10 WNW 1014,4 47 0,0
16.07.2018 05:00:00 19,3 15,2 17,6 24,9 22,8 13 7 21 11 W 1014,5 35 0,0
16.07.2018 04:00:00 19,4 14,6 17,4 24,9 22,8 2 1 27 14 W 1014,8 56 0,0
16.07.2018 03:00:00 20,5 15,1 19,6 24,9 22,8 16 8 35 19 N 1015,0 20 0,0
16.07.2018 02:00:00 21,4 15,2 19,8 25,0 22,8 21 11 37 20 N 1014,9 20 0,0
16.07.2018 01:00:00 22,2 15,8 20,9 25,0 22,8 18 10 33 18 NW 1015,4 37 0,0
16.07.2018 00:00:00 22,8 19,8 21,8 25,0 22,8 13 7 23 13 WNW 1015,3 20 0,0
15.07.2018 23:00:00 22,8 20,0 21,5 24,9 22,8 11 6 21 12 WNW 1014,9 20 0,0
15.07.2018 22:00:00 22,7 19,1 21,5 24,9 22,8 8 5 18 10 WZW 1014,1 22 0,0
15.07.2018 21:00:00 24,6 18,3 24,7 24,7 22,8 11 6 19 10 W 1013,8 29 0,0
15.07.2018 20:00:00 26,2 17,3 29,2 24,6 22,8 14 8 22 12 W 1013,3 50 0,0
15.07.2018 19:00:00 27,7 15,0 31,3 24,5 22,8 12 7 18 10 W 1013,4 53 0,0
15.07.2018 18:00:00 28,9 16,8 32,3 24,4 22,8 10 6 21 12 W 1013,8 20 0,0
15.07.2018 17:00:00 28,8 17,3 34,7 24,3 22,8 14 8 27 15 W 1013,5 19 0,0
15.07.2018 16:00:00 28,6 19,0 35,0 24,2 22,8 22 12 31 17 ZW 1013,6 28 0,0
15.07.2018 15:00:00 30,1 17,9 36,7 24,1 22,8 16 9 25 14 W 1013,5 20 0,0
15.07.2018 14:00:00 30,0 18,8 32,8 24,1 22,8 10 5 20 11 WNW 1013,9 43 0,0
15.07.2018 13:00:00 29,4 18,2 33,4 24,1 22,8 11 6 17 9 ZW 1014,4 20 0,0
15.07.2018 12:00:00 29,2 17,4 35,4 24,1 22,7 9 5 17 9 WZW 1014,4 33 0,0
15.07.2018 11:00:00 27,5 17,4 29,7 24,2 22,7 4 2 10 6 ZO 1014,5 20 0,0
15.07.2018 10:00:00 24,4 19,9 24,7 24,2 22,7 8 4 13 7 ZZO 1015,0 17 0,0
15.07.2018 09:00:00 23,4 18,1 22,5 24,3 22,7 2 1 7 4 ZO 1014,9 17 0,0
15.07.2018 08:00:00 21,3 19,6 16,3 24,4 22,7 5 3 10 6 OZO 1014,4 13 0,0
15.07.2018 07:00:00 17,6 16,1 15,8 24,5 22,7 0 0 10 5 N 1014,3 15 0,0
15.07.2018 06:00:00 19,1 16,0 16,4 24,6 22,7 9 5 13 7 NNW 1014,0 20 0,0
15.07.2018 05:00:00 20,3 16,5 17,5 24,7 22,7 8 4 10 5 N 1014,1 21 0,0
15.07.2018 04:00:00 22,4 17,3 20,8 24,7 22,7 4 2 24 13 OZO 1014,8 23 0,0
15.07.2018 03:00:00 23,2 14,5 20,3 24,7 22,7 9 5 15 8 NNO 1014,9 28 0,0
15.07.2018 02:00:00 22,3 15,4 19,5 24,8 22,7 9 5 16 9 N 1015,1 26 0,0
15.07.2018 01:00:00 22,7 15,8 20,1 24,8 22,7 13 7 18 10 N 1015,2 27 0,0
15.07.2018 00:00:00 23,7 16,7 20,8 24,8 22,7 8 4 19 10 N 1015,7 26 0,0
14.07.2018 23:00:00 24,4 16,9 22,0 24,7 22,7 12 7 16 9 N 1015,3 29 0,0
14.07.2018 22:00:00 25,6 16,4 23,6 24,7 22,7 13 7 18 10 N 1015,1 32 0,0
14.07.2018 21:00:00 27,1 15,5 27,3 24,5 22,7 11 6 17 9 NNW 1014,4 18 0,0
14.07.2018 20:00:00 28,8 15,0 31,9 24,4 22,7 13 7 23 12 NW 1014,4 49 0,0
14.07.2018 19:00:00 29,7 14,3 35,0 24,2 22,7 14 8 23 13 NW 1014,6 19 0,0
14.07.2018 18:00:00 30,4 14,1 36,8 24,0 22,7 16 8 28 15 NNW 1014,9 46 0,0
14.07.2018 17:00:00 30,5 14,6 37,0 23,9 22,7 19 10 26 14 NW 1015,2 45 0,0
14.07.2018 16:00:00 30,7 15,2 38,2 23,8 22,7 16 9 23 12 WNW 1015,6 20 0,0
14.07.2018 15:00:00 31,5 12,8 39,1 23,7 22,7 10 6 36 20 O 1015,9 39 0,0
14.07.2018 14:00:00 31,7 13,0 38,6 23,6 22,7 4 2 18 10 WZW 1016,5 57 0,0
14.07.2018 13:00:00 30,5 13,7 36,6 23,6 22,7 7 4 19 10 ZO 1016,8 36 0,0
14.07.2018 12:00:00 29,9 13,6 35,5 23,6 22,7 5 3 16 9 O 1017,1 19 0,0
14.07.2018 11:00:00 28,5 14,0 34,7 23,7 22,7 5 3 13 7 NO 1017,2 30 0,0
14.07.2018 10:00:00 26,7 15,7 27,5 23,8 22,7 5 3 10 5 NNO 1017,1 31 0,0
14.07.2018 09:00:00 22,8 16,8 20,8 23,8 22,7 3 2 6 4 N 1017,1 21 0,0
14.07.2018 08:00:00 19,9 15,7 18,4 23,9 22,6 2 1 4 2 NO 1017,0 19 0,0
14.07.2018 07:00:00 19,4 15,7 18,2 24,0 22,7 0 0 14 7 N 1016,9 22 0,0
14.07.2018 06:00:00 19,7 15,1 18,1 24,0 22,7 4 2 9 5 NO 1016,9 21 0,0
14.07.2018 05:00:00 20,0 14,6 18,4 24,1 22,7 6 3 8 4 O 1017,4 23 0,0
14.07.2018 04:00:00 19,5 14,9 18,5 24,2 22,7 2 1 8 4 ZZW 1017,7 24 0,0

tt = temperatuur
td = dauwpunt
tt 5cm = temperatuur 5cm
tt -20cm = temperatuur -20cm
tt -100cm = temperatuur -100cm
ff = windsnelheid
fx = windstoten
dd = windrichting
ppp = luchtdruk
vv = zicht
rr = neerslag

Weerstations in de omgeving